Regional Weather Roundup
Issued by NWS

Home | Current Version | Previous Version | Graphics & Text | Print | Product List | Glossary On
Versions: 1 2 3 4 5 6 7 8 9 10 11 12 13 14 15 16 17 18 19 20 21 22 23 24 25 26 27 28 29 30 31 32 33 34 35 36 37 38 39 40 41 42 43 44 45 46 47 48 49 50
000
ASUS44 KMEG 012110
RWRTN
TENNESSEE HOURLY STATE WEATHER ROUNDUP
NATIONAL WEATHER SERVICE MEMPHIS TN
400 PM CDT MON JUN 01 2015

TNZ002-004-019-021-049-052-054-088>092-012200-
WEST TENNESSEE

CITY           SKY/WX    TMP DP  RH WIND       PRES   REMARKS
MEMPHIS INTL   PTSUNNY   73  60  63 NW8       30.08F
NWS MEMPHIS      N/A     72 N/A N/A MISG        N/A
JACKSON        CLOUDY    72  60  66 W5        30.07S
DYERSBURG      CLOUDY    70  52  52 W8        30.08F
PARIS          CLOUDY    66  59  77 N8        30.07F
LEXINGTON      CLOUDY    66  61  82 N3        30.06S
$$

TNZ008-025-027-028-033-062-065-066-012200-
NORTH MIDDLE TENNESSEE

CITY           SKY/WX    TMP DP  RH WIND       PRES   REMARKS
NASHVILLE      CLOUDY    70  64  83 N8        30.04F
CLARKSVILLE    CLOUDY    67  61  81 N9        30.06F
SMYRNA         CLOUDY    68  64  88 NW6       30.05S
COOKEVILLE     MOSUNNY   73  66  78 NW7       30.03S
CROSSVILLE     MOSUNNY   77  64  64 NW13      30.05S
$$

TNZ061-075-076-078-094-096-097-012200-
SOUTH MIDDLE TENNESSEE

CITY           SKY/WX    TMP DP  RH WIND       PRES   REMARKS
FAYETTEVILLE   PTSUNNY  N/A N/A N/A MISG      30.06R
TULLAHOMA      MOSUNNY   70  63  78 W8        30.05R
WINCHESTER     MOSUNNY   79  64  61 W8        30.03S
MCMINNVILLE    PTSUNNY   68  64  88 W7        30.03F
COLUMBIA       CLOUDY    66  64  94 N3        30.03F
SHELBYVILLE    CLOUDY    70  70 100 W8        30.05S
$$

TNZ017-018-042-046-047-012200-
NORTHEAST TENNESSEE

CITY           SKY/WX    TMP DP  RH WIND       PRES   REMARKS
TRI CITIES     TSTM      69  64  84 S10G24    30.03S
ELIZABETHTON   DRIZZLE   72  64  78 CALM      30.03F
$$

TNZ012-013-036-069-073-074-012200-
CENTRAL EAST TENNESSEE

CITY           SKY/WX    TMP DP  RH WIND       PRES   REMARKS
KNOXVILLE      PTSUNNY   79  62  56 SW15      29.99F
OAK RIDGE      MOSUNNY   80  63  55 SW7       30.01F
GATLINBURG     PTCLDY    82  63  51 SE8       29.99F
MORRISTOWN     PTCLDY    81  63  54 SW15      30.02S
$$

TNZ083-085-099-012200-
SOUTHEAST TENNESSEE

CITY           SKY/WX    TMP DP  RH WIND       PRES   REMARKS
CHATTANOOGA    PTSUNNY   81  65  58 S9        30.00F
$$

SKY/WX REPORTED AS FAIR MEANS FEW OR NO CLOUDS BELOW
12 THOUSAND FEET.



USA.gov is the U.S. government's official web portal to all federal, state and local government web resources and services.